TimeEST,TemperatureF,Dew PointF,Humidity,Sea Level PressureIn,VisibilityMPH,Wind Direction,Wind SpeedMPH,Gust SpeedMPH,PrecipitationIn,Events,Conditions,WindDirDegrees,DateUTC
12:00 AM,21.9,18.0,85,29.86,-9999.0,WNW,5.8,-,N/A,,Clear,290,2013-01-22 05:00:00
1:00 AM,23.0,12.9,65,29.86,-9999.0,NW,3.5,-,N/A,,Clear,310,2013-01-22 06:00:00
2:00 AM,23.0,10.9,60,29.88,-9999.0,NW,12.7,20.7,N/A,,Clear,310,2013-01-22 07:00:00
3:00 AM,21.9,8.1,55,29.89,-9999.0,WNW,12.7,25.3,N/A,,Clear,300,2013-01-22 08:00:00
5:00 AM,19.0,3.9,52,29.95,-9999.0,WNW,15.0,-,N/A,,Clear,290,2013-01-22 10:00:00
6:00 AM,18.0,3.9,54,29.98,-9999.0,WNW,16.1,24.2,N/A,,Clear,290,2013-01-22 11:00:00
7:00 AM,17.1,3.9,56,30.02,-9999.0,WNW,16.1,-,N/A,,Clear,290,2013-01-22 12:00:00
8:00 AM,17.1,3.0,54,30.04,-9999.0,WNW,15.0,-,N/A,,Clear,290,2013-01-22 13:00:00
9:00 AM,18.0,3.0,52,30.06,-9999.0,WNW,21.9,28.8,N/A,,Clear,290,2013-01-22 14:00:00
10:00 AM,19.0,1.9,47,30.08,-9999.0,NW,17.3,27.6,N/A,,Clear,310,2013-01-22 15:00:00
11:00 AM,19.9,3.0,48,30.08,-9999.0,WNW,19.6,31.1,N/A,,Clear,290,2013-01-22 16:00:00
12:00 PM,21.0,3.0,46,30.06,-9999.0,WNW,18.4,25.3,N/A,,Mostly Cloudy,290,2013-01-22 17:00:00
1:00 PM,19.9,-0.0,42,30.05,-9999.0,WNW,21.9,28.8,N/A,,Mostly Cloudy,290,2013-01-22 18:00:00
2:00 PM,19.0,-2.0,40,30.06,-9999.0,WNW,24.2,35.7,N/A,,Partly Cloudy,290,2013-01-22 19:00:00
3:00 PM,19.9,-2.0,38,30.06,-9999.0,West,20.7,29.9,N/A,,Clear,280,2013-01-22 20:00:00
4:00 PM,19.9,-2.0,38,30.09,-9999.0,West,18.4,27.6,N/A,,Clear,280,2013-01-22 21:00:00
5:00 PM,18.0,-2.9,40,30.12,-9999.0,WNW,16.1,24.2,N/A,,Clear,290,2013-01-22 22:00:00
6:00 PM,17.1,-2.9,41,30.14,-9999.0,WNW,19.6,26.5,N/A,,Clear,290,2013-01-22 23:00:00
7:00 PM,16.0,-2.9,43,30.17,-9999.0,WNW,13.8,21.9,N/A,,Clear,300,2013-01-23 00:00:00
8:00 PM,16.0,-2.9,43,30.19,-9999.0,WNW,11.5,20.7,N/A,,Clear,300,2013-01-23 01:00:00
9:00 PM,16.0,-4.0,41,30.20,-9999.0,WNW,18.4,28.8,N/A,,Clear,290,2013-01-23 02:00:00
10:00 PM,14.0,-2.9,47,30.21,-9999.0,WNW,13.8,-,N/A,,Clear,300,2013-01-23 03:00:00
11:00 PM,14.0,-4.0,45,30.23,-9999.0,WNW,16.1,24.2,N/A,,Clear,300,2013-01-23 04:00:00